Shoreham, United Kingdom

1:07 AM GMT on March 24, 2017 (GMT +0000)
Shoreham

Weather History for EGKA - November, 2011

Change the Weather History Date:

Monday, November 21, 2011

  Actual Average Record
Temperature  
Mean Temperature 48 °F -  
Max Temperature 57 °F 46 °F 57 °F (2011)
Min Temperature 40 °F 40 °F 32 °F (1996)
Degree Days  
Heating Degree Days 16    
Moisture  
Dew Point 50 °F    
Average Humidity 91    
Maximum Humidity 100    
Minimum Humidity 82    
Precipitation  
Precipitation 0.01 in - - ()
Sea Level Pressure  
Sea Level Pressure 29.94 in    
Wind  
Wind Speed 6 mph ()    
Max Wind Speed 13 mph    
Max Gust Speed -    
Visibility 4.0 miles    
Events Fog    
Averages and records for this station are not official NWS values.
T = Trace of Precipitation, MM = Missing Value Source: Averaged Metar Reports

Daily Weather History Graph

Daily Weather History Graph

Search for Another Location

Airport or City:

Trip Planner

Search our weather history database for the weather conditions in past years. The results will help you decide how hot, cold, wet, or windy it might be!

Date:

Astronomy

Nov. 21, 2011 Rise Set
Actual Time 7:25 AM GMT 4:07 PM GMT
Civil Twilight 6:48 AM GMT 4:44 PM GMT
Nautical Twilight 6:08 AM GMT 5:25 PM GMT
Astronomical Twilight 5:29 AM GMT 6:04 PM GMT
Moon 2:21 AM GMT (11/21) 1:42 PM GMT (11/21)
Length of Visible Light 9h 55m
Length of Day
8h 41m
Waning Crescent, 20% of the Moon is Illuminated
Nov 21
Waning Crescent
Nov 25
New
Dec 2
First Quarter
Dec 10
Full
Dec 18
Last Quarter

Hourly Weather History & Observations

Time (GMT) Temp. Windchill Dew Point Humidity Pressure Visibility Wind Dir Wind Speed Gust Speed Precip Events Conditions
2:50 AM 40 °F - 40 °F 99% 29.99 in - NNE 6.9 mph - -  
7:20 AM 44.6 °F 41.4 °F 44.6 °F 100% 29.95 in 1.6 mi NE 5.8 mph - N/A   Partly Cloudy
7:50 AM 44.6 °F 41.4 °F 44.6 °F 100% 29.95 in 1.9 mi NE 5.8 mph - N/A Fog Fog
8:20 AM 46.4 °F 43.5 °F 46.4 °F 100% 29.95 in 2.2 mi NE 5.8 mph - N/A Fog Fog
8:50 AM 46.4 °F 45.2 °F 46.4 °F 100% 29.98 in 2.2 mi NE 3.5 mph - N/A Fog Fog
9:20 AM 48.2 °F - 48.2 °F 100% 29.95 in 2.2 mi NNE 3.5 mph - N/A Fog Fog
9:50 AM 48.2 °F - 48.2 °F 100% 29.95 in 2.2 mi North 4.6 mph - N/A Fog Fog
10:20 AM 51.8 °F - 50.0 °F 94% 29.95 in 2.8 mi East 4.6 mph - N/A Fog Fog
10:50 AM 51.8 °F - 50.0 °F 94% 29.95 in 3.1 mi East 5.8 mph - N/A Fog Fog
11:20 AM 51.8 °F - 50.0 °F 94% 29.95 in 3.7 mi ENE 5.8 mph - N/A   Partly Cloudy
11:50 AM 55 °F - 51 °F 82% 29.94 in - East 5.8 mph - -  
11:50 AM 55.4 °F - 50.0 °F 82% 29.95 in 5.0 mi East 6.9 mph - N/A   Partly Cloudy
12:20 PM 55.4 °F - 50.0 °F 82% 29.92 in 5.0 mi East 8.1 mph - N/A   Partly Cloudy
12:50 PM 55.4 °F - 50.0 °F 82% 29.92 in 6.2 mi East 6.9 mph - N/A   Partly Cloudy
1:20 PM 57.2 °F - 51.8 °F 82% 29.92 in 6.2 mi ESE 9.2 mph - N/A   Partly Cloudy
1:50 PM 55.4 °F - 50.0 °F 82% 29.92 in 6.2 mi ESE 11.5 mph - N/A   Scattered Clouds
2:20 PM 53.6 °F - 51.8 °F 94% 29.92 in 2.8 mi SE 5.8 mph - N/A Fog Scattered Clouds
2:50 PM 55 °F - 52 °F 84% 29.92 in - SE 12.7 mph - -  
2:50 PM 55.4 °F - 51.8 °F 88% 29.92 in 5.0 mi SE 11.5 mph - N/A   Mostly Cloudy
3:20 PM 55.4 °F - 51.8 °F 88% 29.92 in 5.0 mi ESE 12.7 mph - N/A   Mostly Cloudy
3:50 PM 53.6 °F - 51.8 °F 94% 29.92 in 5.0 mi ESE 12.7 mph - N/A   Mostly Cloudy
4:20 PM 53.6 °F - 51.8 °F 94% 29.92 in 5.0 mi ESE 11.5 mph - N/A   Mostly Cloudy
4:50 PM 53.6 °F - 51.8 °F 94% 29.92 in 5.0 mi ESE 10.4 mph - N/A   Overcast
5:20 PM 53.6 °F - 50.0 °F 88% 29.92 in 5.0 mi ESE 8.1 mph - N/A   Overcast
5:50 PM 54 °F - 51 °F 87% 29.94 in - ESE 9.2 mph - -  
5:50 PM 53.6 °F - 51.8 °F 94% 29.92 in 5.0 mi East 8.1 mph - N/A   Overcast
8:50 PM 53 °F - 51 °F 89% 29.96 in - East 4.6 mph - -  
11:50 PM 52 °F - 51 °F 95% 29.96 in - East 5.8 mph - -